星链-11134 [DTC] (STARLINK-11134 [DTC] )

导读 | 星芒AI

STARLINK-11134 [DTC] 是SpaceX星链(Starlink)卫星互联网项目中的一颗低轨通信卫星,属于第5批(v1.5)星链卫星。该卫星于2022年发射,旨在为全球提供高速互联网服务。它运行在约550公里的近地轨道,采用先进的推进系统和激光通信技术,以提高网络效率和减少延迟。作为星链星座的一部分,STARLINK-11134支持偏远地区的宽带接入,并增强整体网络的覆盖与稳定性。

基本信息
目录编号:
59956
目录名称:
STARLINK-11134
国际标识:
2024-107M
轨道中心:
EARTH
卫星名称:
星链-11134 [DTC]
卫星全名:
星链-11134 [DTC] (STARLINK-11134 [DTC] )
卫星状态:
在轨 (已飞行558 天)
发射日期:
2024-06-05 UTC
国别 :
美国 (US)
星等 :
--
轨道信息
数据来源 国际轨道数据
星历时间: 2025-12-14T16:03:49+0800
1天前
查看轨道信息
半长轴: 6737.975km
偏心率: 0.000115
轨道倾角: 53.159°
近地点辐角 104.930°
升交点赤经 311.767°
平近点角 255.185°
近地点: 359.065km
远地点: 360.615km
周期: 91.739分钟
每日圈数: 15.696713
详细信息
固有亮度:
5
最大亮度:
0.3
卫星平台:
Starlink v2.0 mini
覆盖范围:
全球
运营商:
太空探索技术公司
运营商所在国:
美国
制造商(研发单位):
太空探索技术公司
制造商所在国:
美国
使用方式:
暂无
卫星简介
星链(Starlink)计划是由太空探索技术公司(SpaceX)提出的一个巨型低轨卫星互联网星座项目,计划在2019年至2024年间在太空搭建由约1.2万颗卫星组成的“星链”网络,其中1584颗将部署在地球上空550千米处的近地轨道,并从2020年开始工作。该卫星仍在工作。
2D轨道图
3D轨道图
轨道高度分析图
轨道倾角分析图
轨道综合分析图
查看轨道综合分析图